Regional Weather Roundup
Issued by NWS

Home | Current Version | Previous Version | Text Only | Print | Product List | Glossary Off
Versions: 1 2 3 4 5 6 7 8 9 10 11 12 13 14 15 16 17 18 19 20 21 22 23 24 25 26 27 28 29 30 31 32 33 34 35 36 37 38 39 40 41 42 43 44 45 46 47 48 49 50

000
ASUS43 KDTX 221401
RWRMI
MICHIGAN HOURLY REGIONAL WEATHER ROUNDUP
NATIONAL WEATHER SERVICE DETROIT/PONTIAC MI
900 AM EST MON JAN 22 2018

NOTE: "FAIR" INDICATES FEW OR NO CLOUDS BELOW 12,000 FEET WITH NO
SIGNIFICANT WEATHER AND/OR OBSTRUCTION TO VISIBILITY.

MIZ047>049-052>055-059>063-066>070-074>076-081>083-221500-
SOUTHEAST LOWER MICHIGAN

CITY           SKY/WX    TMP DP  RH WIND       PRES   REMARKS
ADRIAN         MOCLDY    44  43  96 S7        29.81F FOG
ALMA           LGT SNOW  35  35 100 NE12G17   29.83F WCI  27
ANN ARBOR      LGT RAIN  41  41 100 E6        29.82F VSB 3/4
BAD AXE        MIX PCPN  35  34  99 E10       29.90F WCI  27
CARO           LGT RAIN  36  36  99 E8        29.87S WCI  30
DETROIT CITY   LGT RAIN  38  38 100 CALM      29.86F VSB 1/2
DETROIT        FOG       41  41 100 E3        29.85F VSB 1/8
FLINT          CLOUDY    37  36  96 E8        29.84S WCI  31
GROSSE ILE     LGT RAIN  46  46 100 SE7       29.84F
HILLSDALE      LGT RAIN  45  43  93 SE9G16    29.77S
HOWELL         CLOUDY    40  40 100 E10       29.80F FOG     WCI  34

CITY           SKY/WX    TMP DP  RH WIND       PRES   REMARKS
JACKSON        FOG       42  42 100 E9        29.77F VSB 3/4
LAMBERTVILLE   MIX PCPN  46  45  97 SE5       29.81F
LANSING        CLOUDY    39  39 100 E7        29.80F FOG     WCI  34
LAPEER         LGT RAIN  35  35 100 E5        29.85F WCI  31
MASON          LGT RAIN  41  39  93 SE7       29.79S
MONROE         FOG       41  39  93 E5        29.82F VSB 1
MT. CLEMENS    FOG       37  36  93 CALM      29.87F VSB 1/2
PONTIAC        LGT RAIN  37  37 100 E6        29.83F FOG     WCI  32
PORT HOPE        N/A     34  33  96 E16       29.91F WCI  24
PORT HURON     CLOUDY    37  36  93 E6        29.88F WCI  33
TRI CITIES     RAIN      35  35 100 NE14      29.87F FOG     WCI  26
MIDLAND        LGT RAIN  35  35  99 NE12G20   29.87F WCI  27
TROY           LGT SNOW  38  38  98 NE3       29.87F VSB 1
SAGINAW HB     LGT SNOW  34  34 100 NE10      29.86F WCI  26
$$
MIZ043>046-050>051-056>058-064>065-071>073-077>080-221500-
SOUTHWEST LOWER MICHIGAN

CITY           SKY/WX    TMP DP  RH WIND       PRES   REMARKS
BATTLE CREEK   CLOUDY    44  44 100 E6        29.73F FOG
BENTON HARBOR  RAIN      50  46  86 S9        29.69R FOG
BIG RAPIDS     MIX PCPN  35  33  92 E12       29.80F WCI  27
COLDWATER      RAIN      48  48 100 SE12G17   29.73F
FREMONT        RAIN      37  34  90 E12G21    29.76F WCI  29
HOLLAND        TSTM      39  38  96 E10       29.74R FOG     WCI  32
GRAND RAPIDS   LGT RAIN  37  36  96 E18       29.75F WCI  27
IONIA          LGT RAIN  36  36 100 NE14G22   29.78F WCI  27
KALAMAZOO      LGT RAIN  47  45  93 SE6       29.71F FOG
LUDINGTON      LGT RAIN  37  37  98 E20G25    29.75F WCI  27
MARSHALL       CLOUDY    45  44  97 E7        29.74F FOG
MOUNT PLEASANT LGT RAIN  36  35  96 E12G18    29.84F WCI  28
MUSKEGON       RAIN      39  35  86 E16       29.73F FOG     WCI  30
SOUTH HAVEN    MIX PCPN  47  46  96 CALM      29.71R
$$
MIZ016>042-221500-
NORTHERN LOWER MICHIGAN

CITY           SKY/WX    TMP DP  RH WIND       PRES   REMARKS
ALPENA         CLOUDY    33  32  96 E14G23    30.00R WCI  23
BEAVER ISLAND  CLOUDY    32  32  99 E16G24    29.96F WCI  21
BELLAIRE       CLOUDY    36  34  94 E10G17    29.91F FOG     WCI  28
CADILLAC       LGT SNOW  34  33  99 E20       29.81F WCI  22
CHARLEVOIX     CLOUDY    35  35 100 E14       29.96S FOG     WCI  26
FRANKFORT      CLOUDY    37  37  97 E9G20     29.81F FOG     WCI  31
GAYLORD        CLOUDY    32  32 100 E10G18    29.91S FOG     WCI  24
GRAYLING       CLOUDY    33  32  96 E18       29.89F FOG     WCI  22
HARBOR SPRINGS CLOUDY    32  32 100 E16G25    29.95S WCI  21
HOUGHTON LAKE  LGT RAIN  34  32  92 E16G25    29.88F FOG     WCI  24
MANISTEE       LGT RAIN  37  35  92 E16       29.78F WCI  28
OSCODA         MIX PCPN  34  33  98 NE20      29.94F WCI  22
PELLSTON       CLOUDY    31  31 100 E17       29.98S WCI  19
ROGERS CITY    CLOUDY    30  29  94 E15G21    30.02S WCI  19
TRAVERSE CITY  LGT RAIN  37  34  89 E8        29.86F WCI  31
$$
MIZ007>008-015-221500-
EASTERN UPPER MICHIGAN

CITY           SKY/WX    TMP DP  RH WIND       PRES   REMARKS
KINROSS        CLOUDY    27  22  81 E15G23    30.02S WCI  15
MACKINAC ISLAN CLOUDY    29  26  86 E17G28    29.99F WCI  17
NEWBERRY       CLOUDY    28  27  97 NE9       29.99S WCI  19
S. S. MARIE    CLOUDY    27  19  72 NE13G20   30.03F WCI  16
MUNISING         N/A     32  30  92 NE9       29.98F WCI  24
$$
MIZ004>006-011>014-085-221500-
CENTRAL UPPER MICHIGAN

CITY           SKY/WX    TMP DP  RH WIND       PRES   REMARKS
ESCANABA       CLOUDY    34  32  92 NE13G21   29.93F FOG     WCI  25
MENOMINEE      MIX PCPN  33  32  96 NE22G29   29.87F VSB 1/4 WCI  21
SAWYER-GWINN   FOG       28  28 100 NE12      29.95F VSB 1   WCI  18
$$
MIZ001>003-009>011-084-221500-
WESTERN UPPER MICHIGAN

CITY           SKY/WX    TMP DP  RH WIND       PRES   REMARKS
IRON MOUNTAIN  CLOUDY    32  29  88 NE10      29.89F FOG     WCI  24
HOUGHTON       CLOUDY    26  22  84 E13G24    30.01F WCI  15
COPPER HARBOR    N/A     27  23  85 E12G17    30.08S WCI  17
IRONWOOD       FLURRIES  27  25  92 NE13G18   29.95S WCI  16
$$

ABBREVIATIONS USED IN REMARKS
   TC - TEMPERATURE IN CELSIUS
  WCI - WIND CHILL INDEX
   HX - HEAT INDEX
  VSB - VISIBILITY




USA.gov is the U.S. government's official web portal to all federal, state and local government web resources and services.